sat.trackr.live / text

‹ back to catalog

UVSQ-SAT NG

NORAD 63251 · 2025-052AT

PAYLOAD ACTIVE UNKNOWN

§ Identity

Operator
Country
FR
Launch date
2025-03-15
Launch site
AFWTR
Launch vehicle
Mass (kg)
RCS (m²)

External: N2YO · Heavens-Above · Gunter

§ Orbital elements

Epoch: 2026-09-22T16:10:52.869792Z

Period
96.27 min
Inclination
97.6703°
Eccentricity
0.0001319
Mean motion
14.95757261 rev/d
Perigee alt
579.1 km
Apogee alt
580.9 km
Semi-major
6,958.2 km
B*
9.0147e-5
RAAN
155.1771°
Arg perigee
261.3962°
Mean anomaly
98.7110°
Rev number
8,320

§ Raw data

UVSQ-SAT NG1 63251U 25052AT  26265.67422303  .00000948  00000+0  90147-4 0  99942 63251  97.6703 155.1771 0001319 261.3962  98.7110 14.95757261 83207

JSON: /api/v1/satellites/63251 · /tle

For live sub-satellite position, see the globe view (requires WebGL).

§ Visibility from observer

Set your observer location to see the next 7 days of passes ≥ 10°. The values pass through the URL so the page stays shareable.

No JS? Fill the form by hand. The geolocation button needs JavaScript.

§ Radio — SatNOGS DB

ModeDescriptionDownlinkUplink
FM Mode S - Transmitter 2.208 GHz
BPSK Mode U - BPSK9k6 401.850 MHz

2 transmitters · refreshed weekly from db.satnogs.org